weather.gov     
National Weather Service

Terminal Aerodrome Forecast
NWS Homepage
This page is being discontinued on March 12, 2014.
The same data is available at this site. Please update your bookmarks.
Thank you, and we apologize for the inconvenience.
Please send an email to SR-SRH.Webmaster@noaa.gov with any concerns.


Current Version
Previous Version:    01  02  03  04  05  06  07  08  09  10  11  12  13  14  15  16  17  
[Printable]
683
FTUS45 KPUB 311746
TAFALS
TAF
KALS 311746Z 3118/0118 22006KT P6SM SCT200
     FM312000 21011KT P6SM FEW140 BKN200
     FM010100 17007KT P6SM SCT140 BKN200
     FM010600 17008KT P6SM SCT100 BKN140=


683
FTUS45 KPUB 311746
TAFALS
TAF
KALS 311746Z 3118/0118 22006KT P6SM SCT200
     FM312000 21011KT P6SM FEW140 BKN200
     FM010100 17007KT P6SM SCT140 BKN200
     FM010600 17008KT P6SM SCT100 BKN140=




U.S. Dept. of Commerce
NOAA National Weather Service
1325 East West Highway
Silver Spring, MD 20910
E-mail: w-nws.webmaster@noaa.gov
Page last modified: May 16, 2007
NATIONAL WEATHER SERVICE: for Safety, for Work, for Fun - FOR LIFE